{"data":{"norad_id":60727,"intl_designator":"2024-152H","name":"STARLINK-11080 [DTC]","alt_names":[],"object_type":"PAYLOAD","status":"ACTIVE","operator":null,"country":"US","launch_date":"2024-08-28","launch_site_code":"AFETR","launch_vehicle":null,"mission":null,"orbit_class":"UNKNOWN","rcs_meters":null,"size_class":null,"mass_kg":null,"dimensions":null,"purposes":["comms"],"wikipedia_slug":null,"has_3d_model":false,"image_url":null,"decayed_at":null,"tle_current":{"epoch":"2026-09-21T07:54:34.800480Z","epoch_age_seconds":116840,"freshness":"FRESH","line1":"1 60727U 24152H   26264.32956945 -.00002130  00000+0 -12740-4 0  9994","line2":"2 60727  53.1602 231.7405 0000995  98.4263 261.6868 15.69696101119695","mean_motion":15.69696101,"eccentricity":9.95e-5,"inclination_deg":53.1602,"raan_deg":231.7405,"arg_perigee_deg":98.4263,"mean_anomaly_deg":261.6868,"bstar":-1.274e-5,"rev_number":11969,"period_min":91.737502506544,"perigee_km":359.09610293034,"apogee_km":360.43694573168,"semimajor_km":6737.903524331,"source":"CELESTRAK","updated_at":"2026-09-22T09:00:49.278436Z"}}}